Columbia Owens, SC

9:55 PM EST on November 12, 2019 (GMT -0500)
Columbia Owens Downtown

Weather History for KCUB - September, 2019

Change the Weather History Date:

Saturday, September 7, 2019

  Actual Average Record
Temperature  
Mean Temperature 82 °F 78 °F  
Max Temperature 96 °F 88 °F 96 °F (2016)
Min Temperature 67 °F 69 °F 59 °F (2017)
Degree Days  
Heating Degree Days 0 0  
Month to date heating degree days 0 0  
Since 1 July heating degree days 0 0  
Cooling Degree Days 17 13  
Month to date cooling degree days 122 96  
Year to date cooling degree days 2245 1914  
Growing Degree Days 30 (Base 50)    
Moisture  
Dew Point 64 °F    
Average Humidity 60    
Maximum Humidity 90    
Minimum Humidity 31    
Precipitation  
Precipitation 0.00 in 0.14 in 3.18 in (2004)
Month to date precipitation 0.61 0.99  
Year to date precipitation 23.79 32.84  
Sea Level Pressure  
Sea Level Pressure 29.89 in    
Wind  
Wind Speed 2 mph (South)    
Max Wind Speed 9 mph    
Max Gust Speed 14 mph    
Visibility 10 miles    
Events      
T = Trace of Precipitation, MM = Missing Value Source: NWS Daily Summary

Daily Weather History Graph

Daily Weather History Graph

Search for Another Location

Airport or City:

Astronomy

Sep. 07, 2019 Rise Set
Actual Time 7:01 AM EDT 7:41 PM EDT
Civil Twilight 6:36 AM EDT 8:07 PM EDT
Nautical Twilight 6:06 AM EDT 8:36 PM EDT
Astronomical Twilight 5:36 AM EDT 9:07 PM EDT
Moon 3:43 PM EDT (9/7) 1:04 AM EDT (9/7)
Length of Visible Light 13h 30m
Length of Day
12h 40m
Waxing Gibbous, 65% of the Moon is Illuminated
Sep 7
Waxing Gibbous
Sep 14
Full
Sep 21
Last Quarter
Sep 28
New
Oct 5
First Quarter

Hourly Weather History & Observations

Time (EDT) Temp. Heat Index Dew Point Humidity Pressure Visibility Wind Dir Wind Speed Gust Speed Precip Events Conditions
12:53 AM 73.9 °F - 68.0 °F 82% 29.86 in 10.0 mi Calm Calm - N/A   Clear
1:53 AM 72.0 °F - 68.0 °F 87% 29.87 in 10.0 mi Calm Calm - N/A   Clear
2:53 AM 71.1 °F - 66.9 °F 87% 29.86 in 10.0 mi Calm Calm - N/A   Clear
3:53 AM 70.0 °F - 66.9 °F 90% 29.86 in 10.0 mi Calm Calm - N/A   Clear
4:53 AM 70.0 °F - 63.0 °F 78% 29.87 in 10.0 mi Calm Calm - N/A   Clear
5:53 AM 68.0 °F - 63.0 °F 84% 29.89 in 10.0 mi Calm Calm - N/A   Clear
6:53 AM 66.9 °F - 63.0 °F 87% 29.90 in 10.0 mi Calm Calm - N/A   Clear
7:53 AM 69.1 °F - 64.0 °F 84% 29.92 in 10.0 mi Calm Calm - N/A   Clear
8:53 AM 75.9 °F - 64.9 °F 69% 29.93 in 10.0 mi Calm Calm - N/A   Clear
9:53 AM 82.0 °F 83.4 °F 64.0 °F 54% 29.94 in 10.0 mi Calm Calm - N/A   Clear
10:53 AM 84.9 °F 86.1 °F 64.0 °F 49% 29.94 in 10.0 mi Variable 3.5 mph - N/A   Clear
11:53 AM 89.1 °F 90.0 °F 63.0 °F 42% 29.93 in 10.0 mi Variable 3.5 mph - N/A   Clear
12:53 PM 91.9 °F 92.9 °F 63.0 °F 38% 29.91 in 10.0 mi South 10.4 mph - N/A   Clear
1:53 PM 91.9 °F 92.5 °F 62.1 °F 37% 29.90 in 10.0 mi South 6.9 mph - N/A   Clear
2:53 PM 93.0 °F 92.7 °F 60.1 °F 33% 29.88 in 10.0 mi Variable 4.6 mph - N/A   Clear
3:53 PM 95.0 °F 95.2 °F 61.0 °F 32% 29.86 in 10.0 mi SSE 5.8 mph - N/A   Clear
4:53 PM 95.0 °F 95.2 °F 61.0 °F 32% 29.85 in 10.0 mi Calm Calm - N/A   Clear
5:53 PM 95.0 °F 95.6 °F 62.1 °F 33% 29.84 in 10.0 mi Variable 3.5 mph - N/A   Clear
6:53 PM 93.0 °F 94.2 °F 63.0 °F 37% 29.85 in 10.0 mi South 4.6 mph - N/A   Clear
7:53 PM 88.0 °F 89.6 °F 64.9 °F 46% 29.86 in 10.0 mi Calm Calm - N/A   Clear
8:53 PM 84.0 °F 87.0 °F 68.0 °F 58% 29.88 in 10.0 mi Calm Calm - N/A   Clear
9:53 PM 82.0 °F 84.9 °F 68.0 °F 62% 29.89 in 10.0 mi Calm Calm - N/A   Clear
10:53 PM 80.1 °F 82.7 °F 68.0 °F 67% 29.90 in 10.0 mi Calm Calm - N/A   Clear
11:53 PM 78.1 °F - 66.9 °F 68% 29.91 in 10.0 mi Calm Calm - N/A   Scattered Clouds